Temp
43 41 40 40 38 36 35 35 36 36 35 35 36 35 34 31 31 30 30 30 30 31
41 40 39 39 37 35 35 37 36 35 34 34 34 34 32 30 29 30 30 30 30 29
40 39 38 37 35 35 34 35 34 34 34 33 32 32 31 29 29 28 28 30 28 28
37 38 37 35 34 33 33 34 33 33 32 31 30 30 29 29 29 28 28 28 28 27
36 35 35 34 34 33 33 32 32 32 31 30 30 30 29 28 28 27 27 27 27 26
34 33 34 33 33 32 31 31 31 30 29 29 29 29 29 29 28 28 27 27 26 26
33 33 33 32 32 31 31 29 29 29 29 29 29 29 29 29 28 27 28 28 27 26
33 33 32 31 30 30 30 30 29 28 28 28 28 30 28 28 26 26 26 26 28 27
33 32 30 30 29 28 28 27 27 27 26 25 29 32 32 29 26 26 26 25 26 26
32 30 29 29 28 27 25 26 24 24 24 24 24 31 32 30 27 25 24 25 26 26
30 29 26 26 25 24 25 24 23 23 23 23 24 31 31 29 25 24 24 24 25 24
29 26 25 24 23 23 23 21 20 21 19 19 19 30 30 28 22 22 22 25 25 24
27 26 26 25 22 22 19 22 22 21 18 17 14 26 28 27 21 13 19 21 25 27
26 27 26 23 19 20 18 20 16 17 14 13 15 15 25 27 22 19 17 18 20 24
MSLP
1026.73 1027.48 1028.17 1028.80 1029.42 1029.82 1030.53 1031.22 1031.14 1031.38 1031.62 1031.96 1032.04 1032.52 1032.83 1033.35 1033.55 1033.63 1033.86 1033.94 1033.69 1033.81
1026.82 1027.27 1028.13 1028.80 1029.49 1030.06 1030.75 1031.14 1031.26 1031.64 1031.69 1032.34 1032.50 1032.69 1033.15 1033.48 1033.86 1033.82 1034.10 1034.13 1034.05 1034.11
1026.84 1027.57 1028.16 1028.71 1029.53 1030.18 1030.82 1031.21 1031.45 1031.74 1031.97 1032.31 1032.53 1032.74 1033.30 1033.77 1033.95 1034.16 1034.28 1033.89 1034.24 1034.28
1027.06 1027.66 1028.04 1028.72 1029.30 1030.27 1030.86 1031.29 1031.55 1031.92 1032.02 1032.23 1032.54 1032.82 1033.17 1033.45 1033.65 1034.12 1034.14 1034.16 1033.98 1034.47
1027.12 1027.62 1028.04 1028.72 1029.27 1030.04 1030.69 1031.15 1031.62 1032.02 1031.96 1032.14 1032.40 1032.77 1033.05 1033.40 1033.59 1033.82 1033.86 1033.92 1033.97 1034.20
1027.03 1027.35 1027.92 1028.55 1029.19 1029.89 1030.58 1031.34 1031.63 1031.81 1031.78 1032.09 1032.36 1032.92 1033.04 1033.26 1033.45 1033.56 1033.78 1033.89 1033.96 1033.87
1026.59 1027.14 1027.83 1028.38 1029.02 1029.56 1030.29 1031.01 1031.44 1031.48 1031.65 1032.06 1032.46 1032.82 1033.02 1033.14 1033.14 1033.23 1033.38 1033.55 1033.65 1033.64
1026.08 1026.91 1027.67 1028.25 1028.75 1029.29 1030.03 1030.65 1031.07 1031.32 1031.67 1032.11 1032.41 1032.64 1032.81 1032.87 1033.08 1033.22 1033.26 1033.28 1033.13 1033.20
1025.84 1026.45 1027.19 1027.82 1028.52 1029.26 1030.02 1030.56 1030.81 1031.20 1031.59 1031.83 1031.87 1031.90 1032.04 1032.42 1032.91 1032.85 1032.91 1032.89 1032.89 1032.89
1025.32 1026.14 1026.80 1027.53 1028.42 1029.07 1029.74 1030.17 1030.45 1030.95 1031.37 1031.53 1031.70 1031.50 1031.75 1032.10 1032.29 1032.43 1032.64 1032.65 1032.61 1032.39
1025.13 1025.87 1026.66 1027.46 1028.21 1028.87 1029.35 1029.81 1030.30 1030.61 1030.81 1031.04 1031.20 1030.99 1031.21 1031.42 1031.93 1032.02 1032.15 1032.31 1032.25 1032.13
1024.61 1025.62 1026.39 1027.18 1027.92 1028.46 1028.96 1029.47 1029.79 1030.04 1030.38 1030.70 1030.89 1030.59 1030.82 1031.02 1031.45 1031.57 1031.64 1031.62 1031.55 1031.61
1024.12 1024.94 1025.78 1026.43 1027.16 1027.66 1028.23 1028.75 1029.37 1029.63 1029.97 1030.24 1030.55 1030.38 1030.48 1030.65 1031.11 1031.24 1031.31 1031.28 1031.08 1030.96
1023.68 1024.34 1024.99 1025.88 1026.60 1027.14 1027.80 1028.36 1028.84 1029.34 1029.72 1029.96 1030.37 1030.48 1030.11 1030.16 1030.34 1030.67 1030.88 1030.86 1030.74 1030.65
Wind_Speed
9 5 5 6 5 5 5 4 5 6 6 6 6 6 6 4 3 5 4 4 4 2
7 8 7 8 6 5 6 4 6 6 7 6 6 6 6 4 3 4 3 3 3 2
7 8 7 7 8 7 6 5 6 6 6 6 6 6 6 4 4 4 2 3 4 3
7 8 7 7 7 7 6 6 6 6 6 6 6 5 5 4 4 3 3 3 4 4
7 7 8 7 8 7 7 6 6 6 6 6 6 5 4 3 2 2 2 2 3 4
8 8 8 8 8 7 7 7 6 6 6 6 5 4 2 2 0 1 2 3 4 4
8 8 7 8 8 8 7 7 7 6 6 5 4 3 2 2 1 2 3 4 5 5
8 8 8 8 8 8 7 7 6 6 6 5 4 2 3 1 1 3 5 5 5 5
9 8 8 9 9 7 7 7 6 6 6 5 3 7 6 5 4 3 5 5 5 5
10 9 9 9 9 8 8 6 6 6 6 6 5 9 10 10 4 4 4 6 7 7
9 9 8 9 9 7 6 8 6 6 6 6 6 13 11 10 4 4 6 7 7 7
10 9 10 11 10 6 6 6 6 4 6 7 5 12 11 9 3 6 8 8 7 7
9 11 12 11 11 6 5 7 7 6 7 7 5 11 12 10 3 4 6 6 9 12
10 11 10 8 5 7 6 6 6 6 4 5 6 7 13 14 6 5 5 5 5 5
Wind_Direction
126 130 123 126 130 112 110 113 99 92 90 83 80 82 85 76 72 73 63 65 66 17
121 114 123 115 109 106 116 122 121 121 115 108 91 85 99 101 75 69 66 55 41 21
123 122 129 120 122 125 131 131 134 128 120 120 108 92 101 89 70 72 35 65 29 5
135 142 133 132 130 139 146 150 140 141 137 125 111 93 97 98 86 62 31 11 27 328
150 147 138 141 142 145 152 144 147 149 133 118 110 97 91 104 85 62 359 332 331 308
163 154 153 150 148 150 142 150 155 151 134 123 102 109 116 138 179 334 305 294 287 293
170 161 162 152 151 150 157 161 167 152 132 125 138 154 194 191 278 285 283 281 279 279
162 160 159 154 154 156 163 170 162 145 142 155 162 199 189 108 297 286 281 280 278 269
162 166 162 154 160 154 159 163 152 161 174 181 186 211 209 220 226 258 281 285 279 275
168 168 164 158 155 166 177 168 174 184 183 195 204 222 223 234 236 258 270 276 277 277
168 167 156 157 170 171 171 177 179 189 193 197 211 222 227 232 232 249 258 261 262 263
169 164 163 177 180 180 166 177 181 183 190 204 207 225 230 231 218 253 257 260 259 254
167 170 182 184 181 170 171 189 186 194 199 205 197 225 234 235 204 240 260 264 267 261
175 183 186 169 158 166 169 166 183 197 199 190 188 219 242 243 227 232 252 257 260 263